#timestamp,LO_Frequency,Hit 
1599195615.7,286047000.8,N
1599195635.6,286047000.3,N
1599195655.4,286046998.1,N
1599195675.2,286047000.6,N
1599195695.1,286046998.3,N
1599195696.0,286046998.3,N
1599195715.8,286046998.3,N
1599195735.6,286047000.8,N
1599195755.5,286047000.4,N
1599195775.3,286047001.1,N
1599195795.1,286047000.2,N
1599195815.9,286047000.6,N
1599195835.7,286046998.6,N
1599195855.5,286047000.3,N
1599195875.4,286047000.3,N
1599195895.2,286047000.7,N
1599195915.0,286046998.6,N
1599195915.9,286046998.6,N
1599195935.8,286047000.0,N
1599195955.6,286047000.4,N
1599195975.4,286047000.0,N
1599195995.3,286047001.0,N
1599196015.1,286047000.6,N
1599196035.9,286047000.5,N
1599196055.7,286047000.0,N
1599196075.5,286047000.9,N
1599196095.3,286047000.6,N
1599196115.2,286047000.3,N
1599196135.0,286047000.1,N
1599196135.9,286047000.1,N
1599196155.7,286047002.7,N
1599196175.6,286047001.2,N
1599196195.4,286047000.5,N
1599196215.2,286047000.4,N
1599196235.1,286047000.4,N
1599196236.0,286047000.4,N
1599196255.8,286046999.7,N
1599196275.6,286047000.9,N
1599196295.5,286047000.9,N
1599196315.3,286047000.0,N
1599196335.1,286046999.7,N
1599196355.9,286047000.7,N
1599196375.7,286047001.1,N
1599196395.5,286046998.2,N
1599196415.4,286047000.6,N
1599196435.2,286047001.2,N
1599196455.0,286047001.0,N
1599196455.9,286047001.0,N
1599196475.8,286046999.4,N
1599196495.6,286047001.1,N
1599196515.4,286046998.6,N
1599196535.3,286047001.1,N
1599196555.1,286046998.4,N
1599196575.8,286046999.3,N
1599196595.7,286046998.7,N
1599196615.5,286046998.2,N
1599196635.3,286046998.6,N
1599196655.2,286046998.8,N
1599196675.0,286046999.3,N
1599196675.9,286046999.3,N
1599196695.7,286046997.1,N
1599196715.6,286046997.0,N
1599196735.4,286046999.2,N
1599196755.2,286046997.0,N
1599196775.1,286046997.5,N
1599196776.0,286046997.5,N
1599196795.9,286046996.6,N
1599196815.7,286046997.5,N
1599196835.5,286046997.2,N
1599196855.3,286046996.8,N
1599196875.2,286046996.8,N
1599196895.0,286046997.0,N
1599196895.9,286046997.0,N
1599196915.7,286046996.6,N
1599196935.6,286046994.9,P
1599196955.4,286046999.3,N
1599196975.3,286046998.8,N
1599196995.1,286046999.4,N
1599196996.0,286046999.4,N
1599197015.8,286046998.9,N
1599197035.7,286046999.2,N
1599197055.5,286046996.8,N
1599197075.3,286046999.3,N
1599197095.2,286046997.3,N
1599197115.9,286046996.6,N
1599197135.7,286046996.5,N
1599197155.6,286046997.0,N
1599197175.4,286046996.7,N
1599197195.2,286046996.7,N
1599197215.1,286046996.7,N
1599197216.0,286046996.7,N
1599197235.8,286046997.1,N
1599197255.6,286046997.8,N
1599197275.5,286046996.9,N
1599197295.3,286046996.9,N
1599197315.1,286046997.2,N
1599197335.9,286046997.9,N
1599197355.7,286046997.7,N
1599197375.5,286046996.6,N
1599197395.4,286046995.3,P
1599197415.2,286046999.1,N
1599197435.0,286046999.0,N
1599197435.9,286046999.0,N
1599197455.8,286046998.7,N
1599197475.6,286046998.3,N
1599197495.4,286046999.4,N
1599197515.3,286046999.3,N
1599197535.1,286046998.5,N
1599197536.0,286046998.5,N
1599197555.8,286046999.3,N
1599197575.7,286046998.4,N
1599197595.5,286047001.2,N
1599197615.3,286046998.4,N
1599197635.2,286046999.9,N
1599197655.9,286047001.1,N
1599197675.7,286046998.6,N
1599197695.6,286046999.8,N
1599197715.4,286047002.8,N
1599197735.2,286047001.0,N
1599197755.1,286046999.9,N
1599197756.0,286046999.9,N
1599197775.8,286047002.4,N
1599197795.6,286047000.9,N
1599197815.5,286047000.3,N
1599197835.3,286047002.7,N
1599197855.1,286047000.5,N
1599197875.9,286047000.3,N
1599197895.7,286047000.5,N
1599197915.5,286047002.1,N
1599197935.4,286047002.2,N
1599197955.2,286047001.8,N
1599197975.0,286047000.1,N
1599197975.9,286047000.1,N
1599197995.8,286047002.3,N
1599198015.6,286047002.7,N
1599198035.4,286046999.7,N
1599198055.3,286047002.5,N
1599198075.1,286047002.3,N
1599198076.0,286047002.3,N
1599198095.8,286046999.9,N
1599198115.7,286047000.3,N
1599198135.5,286047000.4,N
1599198155.3,286047000.0,N
1599198175.2,286047000.9,N
1599198195.9,286047001.5,N
1599198215.7,286047002.0,N
1599198235.6,286047000.6,N
1599198255.4,286047002.5,N
1599198275.2,286047002.0,N
1599198295.1,286047001.8,N
1599198296.0,286047001.8,N
1599198315.8,286046999.8,N
1599198335.6,286047002.7,N
1599198355.5,286047002.4,N
1599198375.3,286047001.6,N
1599198395.1,286046999.7,N
1599198415.9,286047002.1,N
1599198435.7,286047002.6,N
1599198455.5,286047001.8,N
1599198475.4,286047002.1,N
1599198495.2,286047002.8,N
1599198515.0,286047001.5,N
1599198515.9,286047001.5,N
1599198535.8,286047002.7,N
1599198555.6,286047001.7,N
1599198575.4,286047001.6,N
1599198595.3,286047002.7,N
1599198615.1,286047001.5,N
1599198616.0,286047001.5,N
1599198635.8,286047002.6,N
1599198655.7,286047000.2,N
1599198675.5,286047002.5,N
1599198695.3,286047002.8,P
1599198715.2,286047000.5,N
1599198735.0,286046998.5,N
1599198735.9,286046998.5,N
1599198755.8,286047000.4,N
1599198775.6,286047000.8,N
1599198795.4,286047001.0,N
1599198815.2,286047000.0,N
1599198835.1,286046998.6,N
1599198836.0,286046998.6,N
1599198855.8,286047000.8,N
1599198875.6,286047000.6,N
1599198895.5,286047000.4,N
1599198915.3,286046999.2,N
1599198935.1,286046998.9,N
1599198955.9,286046998.7,N
1599198975.7,286047001.0,N
1599198995.5,286047000.8,N
1599199015.4,286047001.2,N
1599199035.2,286047000.7,N
1599199055.0,286047000.7,N
1599199055.9,286047000.7,N
1599199075.8,286047000.4,N
1599199095.6,286047000.9,N
1599199115.4,286047000.3,N
1599199135.3,286047000.6,N
1599199155.1,286047000.4,N
1599199175.8,286047001.0,N
1599199195.7,286046999.6,N
